Flag for U.S.A. Weather past 2 weeks in New Haven, Connecticut, U.S.A.

Now
44 °F

Clear.


Feels Like: 42 °F
Forecast: 26 / 55 °F
Wind: 5 mph from Northwest

Location: Tweed-New Haven Airport

Current Time: Apr 1, 2015 at 9:30:11 PM

Latest Report: Apr 1, 2015 at 8:53 PM


Visibility: 10 mi

Pressure: 30.16 "Hg

Humidity: 22%

Dew point: 7 °F

Location of New HavenLocation

Historic Weather in New Haven — Graph

°F

New Haven temperature yesterday

Maximum temperature yesterday: 44 °F (at 11:53 AM)
Minimum temperature yesterday: 36 °F (at 6:53 AM)
Average temperature yesterday: 39 °F

Past Weeks' High & Low Weather Summary

 TemperatureHumidityPressure
High54 °F (Mar 26, 10:03 PM)100% (Mar 21, 10:53 AM)30.42 "Hg (Mar 21, 10:53 AM)
Low20 °F (Mar 23, 6:53 AM)19% (Mar 19, 4:53 PM)29.62 "Hg (Mar 27, 12:53 AM)
Average34 °F61%30.03 "Hg
* Reported Mar 17 7:53 PM — Apr 1 7:53 PM, New Haven, Weather by CustomWeather, © 2015

Note: Actual official high and low records may vary slightly from our data, if they occured in-between our weather recording intervals... More about our weather records

Advertising

New Haven weather history for previous 24 hours

 ConditionsComfort  
Time TempWeatherWind HumidityBarometerVisibility
7:53 PM
Wed, Apr 1
45 °FSunny.6 mph23%30.13 "Hg10 mi
6:53 PM48 °FSunny.6 mph23%30.09 "Hg10 mi
5:53 PM49 °FSunny.5 mph21%30.07 "Hg10 mi
4:53 PM49 °FSunny.10 mph21%30.05 "Hg10 mi
3:53 PM49 °FScattered clouds.8 mph21%30.04 "Hg10 mi
2:53 PM47 °FScattered clouds.14 mph21%30.04 "Hg10 mi
1:53 PM47 °FScattered clouds.12 mph24%30.03 "Hg10 mi
12:53 PM46 °FScattered clouds.8 mph22%30.03 "Hg10 mi
11:53 AM43 °FScattered clouds.7 mph25%30.03 "Hg10 mi
10:53 AM42 °FScattered clouds.9 mph23%30.03 "Hg10 mi
9:53 AM39 °FBroken clouds.14 mph31%30.02 "Hg10 mi
8:53 AM36 °FBroken clouds.12 mph38%30.00 "Hg10 mi
7:53 AM35 °FBroken clouds.10 mph46%29.98 "Hg10 mi
6:53 AM33 °FClear.10 mph58%29.94 "Hg10 mi
5:53 AM34 °FPassing clouds.7 mph70%29.91 "Hg10 mi
4:53 AM33 °FClear.5 mph72%29.87 "Hg10 mi
3:53 AM34 °FClear.7 mph73%29.83 "Hg10 mi
1:53 AM35 °FClear.8 mph82%29.80 "Hg10 mi
12:53 AM36 °FClear.7 mph85%29.78 "Hg10 mi
11:53 PM
Tue, Mar 31
36 °FClear.7 mph89%29.79 "Hg10 mi
10:53 PM36 °FPartly cloudy.3 mph92%29.78 "Hg10 mi
10:00 PM37 °FOvercast.5 mph89%29.78 "Hg10 mi
Weather by CustomWeather, © 2015

See weather overviewHow to use our weather pages